QPF
0.00 0.00 0.00 0.00 0.00 0.00 0.00 0.00 0.00 0.01 0.01 0.01 0.01 0.02 0.05 0.07 0.07 0.07 0.06 0.07 0.07 0.09 0.09 0.07 0.09 0.09 0.08 0.08 0.09 0.07 0.05 0.03 0.05 0.06 0.05 0.03 0.02 0.02 0.02 0.03 0.03 0.03 0.03
0.00 0.00 0.00 0.00 0.00 0.00 0.00 0.00 0.00 0.00 0.00 0.01 0.01 0.02 0.03 0.06 0.09 0.06 0.07 0.08 0.08 0.08 0.08 0.08 0.08 0.09 0.07 0.07 0.10 0.09 0.06 0.05 0.07 0.06 0.07 0.05 0.02 0.01 0.01 0.01 0.02 0.03 0.03
0.00 0.00 0.00 0.00 0.00 0.00 0.00 0.00 0.00 0.01 0.01 0.01 0.01 0.01 0.02 0.04 0.08 0.06 0.07 0.07 0.07 0.07 0.08 0.09 0.09 0.07 0.06 0.06 0.08 0.07 0.06 0.06 0.06 0.07 0.07 0.06 0.04 0.02 0.01 0.01 0.01 0.02 0.02
0.00 0.00 0.00 0.00 0.00 0.00 0.00 0.00 0.00 0.01 0.01 0.01 0.01 0.01 0.01 0.02 0.04 0.04 0.04 0.05 0.07 0.05 0.05 0.06 0.09 0.10 0.07 0.05 0.06 0.07 0.06 0.07 0.08 0.09 0.08 0.07 0.05 0.05 0.03 0.02 0.01 0.01 0.01
0.01 0.00 0.00 0.01 0.00 0.00 0.00 0.00 0.00 0.00 0.01 0.02 0.01 0.01 0.01 0.02 0.02 0.02 0.03 0.04 0.06 0.04 0.04 0.05 0.06 0.09 0.08 0.06 0.06 0.07 0.07 0.07 0.08 0.11 0.11 0.09 0.06 0.04 0.04 0.03 0.02 0.02 0.02
0.00 0.00 0.00 0.00 0.00 0.00 0.00 0.00 0.00 0.00 0.00 0.01 0.01 0.01 0.01 0.01 0.02 0.02 0.02 0.03 0.03 0.03 0.03 0.03 0.05 0.08 0.08 0.06 0.04 0.04 0.04 0.04 0.04 0.06 0.07 0.08 0.08 0.08 0.06 0.04 0.03 0.03 0.02
0.00 0.00 0.00 0.01 0.01 0.00 0.00 0.00 0.00 0.00 0.01 0.02 0.02 0.02 0.01 0.01 0.00 0.01 0.02 0.03 0.02 0.02 0.04 0.05 0.06 0.07 0.08 0.06 0.05 0.05 0.05 0.05 0.04 0.04 0.04 0.05 0.06 0.07 0.07 0.06 0.04 0.03 0.02
0.00 0.01 0.01 0.02 0.02 0.01 0.00 0.00 0.00 0.01 0.01 0.02 0.02 0.01 0.02 0.01 0.00 0.01 0.02 0.02 0.02 0.03 0.04 0.04 0.06 0.07 0.07 0.07 0.07 0.06 0.05 0.06 0.05 0.05 0.05 0.05 0.06 0.07 0.07 0.06 0.06 0.04 0.02
0.00 0.01 0.01 0.02 0.02 0.01 0.00 0.00 0.00 0.01 0.01 0.01 0.01 0.01 0.02 0.02 0.01 0.01 0.02 0.04 0.04 0.03 0.03 0.03 0.04 0.04 0.06 0.07 0.07 0.05 0.05 0.04 0.04 0.04 0.05 0.04 0.04 0.05 0.06 0.06 0.07 0.05 0.03
0.00 0.01 0.01 0.01 0.01 0.01 0.01 0.01 0.00 0.01 0.01 0.01 0.01 0.01 0.02 0.02 0.01 0.01 0.02 0.02 0.04 0.05 0.04 0.03 0.03 0.02 0.03 0.03 0.03 0.04 0.05 0.04 0.04 0.05 0.05 0.04 0.04 0.05 0.06 0.07 0.07 0.07 0.06
0.00 0.01 0.01 0.00 0.00 0.01 0.01 0.01 0.01 0.01 0.01 0.00 0.00 0.01 0.01 0.01 0.01 0.01 0.01 0.01 0.01 0.02 0.04 0.04 0.04 0.03 0.02 0.02 0.02 0.02 0.04 0.03 0.04 0.05 0.05 0.05 0.07 0.08 0.08 0.08 0.08 0.08 0.07
0.00 0.00 0.00 0.00 0.01 0.01 0.01 0.01 0.02 0.01 0.01 0.01 0.01 0.01 0.01 0.01 0.02 0.03 0.02 0.02 0.01 0.01 0.01 0.02 0.03 0.03 0.04 0.04 0.03 0.02 0.03 0.03 0.04 0.05 0.05 0.06 0.08 0.08 0.08 0.07 0.07 0.07 0.08
0.00 0.00 0.00 0.01 0.01 0.02 0.02 0.02 0.02 0.02 0.01 0.01 0.02 0.01 0.01 0.02 0.05 0.08 0.07 0.05 0.03 0.02 0.02 0.02 0.02 0.02 0.04 0.03 0.02 0.02 0.03 0.04 0.03 0.03 0.04 0.06 0.06 0.06 0.05 0.06 0.06 0.07 0.07
0.01 0.01 0.01 0.01 0.01 0.02 0.02 0.02 0.03 0.03 0.02 0.01 0.02 0.02 0.02 0.04 0.07 0.11 0.14 0.12 0.06 0.04 0.03 0.03 0.02 0.02 0.01 0.01 0.01 0.01 0.01 0.02 0.02 0.02 0.03 0.04 0.05 0.06 0.06 0.06 0.06 0.07 0.07
0.01 0.01 0.01 0.02 0.03 0.04 0.05 0.05 0.05 0.04 0.02 0.01 0.02 0.02 0.04 0.08 0.15 0.22 0.20 0.12 0.08 0.05 0.04 0.04 0.02 0.02 0.01 0.01 0.01 0.02 0.02 0.02 0.02 0.02 0.02 0.03 0.03 0.03 0.04 0.05 0.06 0.06 0.06
0.01 0.01 0.02 0.03 0.05 0.05 0.07 0.06 0.06 0.05 0.03 0.03 0.03 0.05 0.08 0.13 0.17 0.18 0.15 0.11 0.08 0.05 0.04 0.03 0.02 0.02 0.02 0.02 0.02 0.01 0.01 0.02 0.02 0.02 0.02 0.02 0.02 0.02 0.02 0.03 0.04 0.06 0.06
0.01 0.01 0.02 0.02 0.03 0.03 0.04 0.05 0.05 0.05 0.05 0.04 0.07 0.13 0.14 0.13 0.13 0.13 0.14 0.07 0.05 0.03 0.03 0.03 0.03 0.03 0.03 0.02 0.02 0.02 0.02 0.02 0.02 0.02 0.02 0.02 0.02 0.02 0.02 0.02 0.04 0.05 0.06
0.01 0.01 0.01 0.01 0.01 0.01 0.03 0.05 0.03 0.04 0.05 0.06 0.09 0.10 0.10 0.10 0.12 0.12 0.07 0.04 0.04 0.03 0.03 0.03 0.03 0.03 0.03 0.03 0.03 0.03 0.02 0.02 0.02 0.02 0.02 0.02 0.02 0.02 0.03 0.03 0.03 0.03 0.05
0.00 0.01 0.01 0.01 0.02 0.02 0.02 0.02 0.03 0.04 0.05 0.06 0.06 0.08 0.09 0.09 0.08 0.07 0.05 0.05 0.04 0.03 0.03 0.03 0.03 0.02 0.03 0.04 0.04 0.02 0.02 0.02 0.01 0.01 0.02 0.02 0.02 0.03 0.05 0.04 0.04 0.04 0.04
0.01 0.01 0.01 0.01 0.02 0.05 0.05 0.05 0.08 0.10 0.10 0.09 0.09 0.10 0.10 0.09 0.09 0.09 0.08 0.07 0.05 0.04 0.03 0.03 0.02 0.02 0.02 0.03 0.03 0.02 0.01 0.01 0.01 0.02 0.02 0.03 0.04 0.04 0.05 0.05 0.05 0.06 0.06
0.02 0.02 0.02 0.03 0.03 0.04 0.06 0.08 0.12 0.12 0.11 0.11 0.12 0.10 0.10 0.11 0.12 0.13 0.10 0.08 0.07 0.05 0.04 0.03 0.02 0.02 0.02 0.03 0.02 0.01 0.01 0.01 0.01 0.01 0.01 0.01 0.02 0.02 0.02 0.03 0.03 0.04 0.03
0.02 0.03 0.03 0.04 0.04 0.05 0.07 0.08 0.09 0.11 0.13 0.15 0.16 0.14 0.13 0.14 0.15 0.15 0.13 0.11 0.10 0.07 0.04 0.04 0.03 0.03 0.02 0.03 0.03 0.02 0.02 0.02 0.01 0.01 0.01 0.02 0.01 0.01 0.01 0.01 0.01 0.02 0.02
0.04 0.05 0.05 0.06 0.07 0.08 0.09 0.10 0.10 0.14 0.17 0.19 0.21 0.24 0.23 0.20 0.17 0.18 0.18 0.15 0.13 0.11 0.08 0.07 0.06 0.04 0.03 0.04 0.04 0.03 0.03 0.03 0.02 0.01 0.02 0.02 0.01 0.01 0.01 0.01 0.02 0.02 0.02
0.06 0.06 0.07 0.10 0.13 0.14 0.13 0.11 0.11 0.12 0.17 0.20 0.22 0.24 0.25 0.26 0.21 0.17 0.17 0.16 0.13 0.11 0.08 0.08 0.07 0.06 0.05 0.04 0.03 0.03 0.03 0.02 0.01 0.01 0.02 0.02 0.01 0.01 0.01 0.01 0.01 0.01 0.01
0.09 0.09 0.08 0.11 0.14 0.16 0.16 0.14 0.12 0.11 0.14 0.15 0.14 0.15 0.17 0.20 0.20 0.18 0.16 0.16 0.12 0.08 0.07 0.06 0.05 0.04 0.03 0.02 0.02 0.02 0.02 0.01 0.02 0.02 0.02 0.02 0.02 0.02 0.01 0.01 0.01 0.01 0.01
0.06 0.07 0.07 0.07 0.07 0.08 0.10 0.11 0.12 0.12 0.11 0.10 0.11 0.12 0.12 0.13 0.13 0.13 0.13 0.12 0.10 0.07 0.06 0.06 0.05 0.04 0.03 0.02 0.02 0.02 0.02 0.02 0.02 0.02 0.02 0.02 0.02 0.02 0.01 0.01 0.01 0.01 0.00
MSLP
1012.41 1012.62 1012.80 1012.95 1013.11 1013.28 1013.50 1013.79 1014.15 1014.56 1015.01 1015.44 1015.84 1016.17 1016.42 1016.60 1016.73 1016.84 1016.95 1017.08 1017.25 1017.46 1017.69 1017.93 1018.15 1018.34 1018.50 1018.62 1018.72 1018.81 1018.89 1018.97 1019.04 1019.09 1019.11 1019.09 1019.01 1018.89 1018.73 1018.55 1018.38 1018.24 1018.15
1012.29 1012.59 1012.84 1013.05 1013.23 1013.40 1013.60 1013.87 1014.22 1014.63 1015.10 1015.56 1015.99 1016.34 1016.60 1016.76 1016.85 1016.89 1016.94 1017.02 1017.16 1017.35 1017.59 1017.86 1018.11 1018.34 1018.53 1018.67 1018.77 1018.85 1018.92 1018.99 1019.07 1019.14 1019.19 1019.20 1019.15 1019.03 1018.85 1018.62 1018.38 1018.13 1017.92
1012.03 1012.44 1012.81 1013.10 1013.33 1013.52 1013.73 1013.99 1014.32 1014.74 1015.21 1015.69 1016.13 1016.49 1016.75 1016.89 1016.93 1016.93 1016.91 1016.94 1017.04 1017.21 1017.45 1017.72 1018.01 1018.26 1018.46 1018.61 1018.71 1018.79 1018.85 1018.93 1019.03 1019.13 1019.22 1019.27 1019.26 1019.17 1018.99 1018.73 1018.41 1018.08 1017.76
1011.63 1012.16 1012.64 1013.04 1013.34 1013.58 1013.80 1014.06 1014.38 1014.79 1015.26 1015.75 1016.21 1016.58 1016.84 1016.96 1016.98 1016.93 1016.87 1016.85 1016.91 1017.05 1017.28 1017.55 1017.84 1018.10 1018.31 1018.45 1018.55 1018.61 1018.68 1018.76 1018.88 1019.01 1019.15 1019.26 1019.30 1019.25 1019.08 1018.80 1018.45 1018.04 1017.63
1011.10 1011.74 1012.34 1012.84 1013.22 1013.51 1013.75 1014.01 1014.33 1014.73 1015.20 1015.69 1016.16 1016.55 1016.82 1016.95 1016.96 1016.90 1016.81 1016.76 1016.78 1016.89 1017.09 1017.35 1017.62 1017.87 1018.07 1018.20 1018.28 1018.33 1018.39 1018.48 1018.61 1018.78 1018.96 1019.12 1019.22 1019.21 1019.06 1018.79 1018.42 1017.97 1017.49
1010.50 1011.23 1011.93 1012.51 1012.96 1013.30 1013.56 1013.81 1014.12 1014.51 1014.97 1015.47 1015.95 1016.37 1016.66 1016.82 1016.85 1016.80 1016.71 1016.64 1016.64 1016.72 1016.89 1017.12 1017.36 1017.58 1017.75 1017.86 1017.92 1017.95 1017.99 1018.08 1018.22 1018.41 1018.63 1018.83 1018.97 1019.01 1018.90 1018.65 1018.28 1017.82 1017.32
1009.91 1010.70 1011.47 1012.11 1012.61 1012.96 1013.23 1013.47 1013.76 1014.12 1014.57 1015.07 1015.58 1016.02 1016.36 1016.57 1016.64 1016.62 1016.54 1016.48 1016.47 1016.53 1016.66 1016.86 1017.06 1017.24 1017.38 1017.45 1017.48 1017.49 1017.51 1017.58 1017.72 1017.92 1018.15 1018.38 1018.56 1018.63 1018.57 1018.35 1018.01 1017.57 1017.09
1009.42 1010.24 1011.03 1011.71 1012.22 1012.57 1012.82 1013.04 1013.29 1013.62 1014.05 1014.55 1015.07 1015.55 1015.94 1016.20 1016.32 1016.34 1016.31 1016.26 1016.24 1016.29 1016.40 1016.55 1016.72 1016.86 1016.96 1017.00 1017.00 1016.98 1016.97 1017.02 1017.14 1017.33 1017.57 1017.81 1018.00 1018.11 1018.08 1017.92 1017.63 1017.24 1016.80
1009.08 1009.90 1010.70 1011.37 1011.87 1012.20 1012.41 1012.58 1012.79 1013.09 1013.49 1013.97 1014.50 1015.00 1015.43 1015.74 1015.92 1015.99 1015.99 1015.96 1015.96 1015.99 1016.08 1016.21 1016.35 1016.46 1016.52 1016.54 1016.51 1016.46 1016.43 1016.46 1016.55 1016.72 1016.93 1017.16 1017.36 1017.49 1017.50 1017.39 1017.16 1016.85 1016.49
1008.91 1009.72 1010.50 1011.14 1011.60 1011.89 1012.06 1012.18 1012.34 1012.59 1012.96 1013.42 1013.94 1014.45 1014.90 1015.24 1015.46 1015.57 1015.60 1015.60 1015.61 1015.65 1015.73 1015.84 1015.96 1016.05 1016.10 1016.10 1016.06 1015.99 1015.94 1015.94 1016.00 1016.12 1016.31 1016.52 1016.71 1016.84 1016.88 1016.83 1016.68 1016.45 1016.19
1008.87 1009.66 1010.40 1011.00 1011.42 1011.66 1011.78 1011.86 1011.98 1012.19 1012.52 1012.95 1013.44 1013.94 1014.39 1014.74 1014.97 1015.11 1015.16 1015.18 1015.20 1015.25 1015.34 1015.45 1015.57 1015.66 1015.72 1015.72 1015.67 1015.60 1015.54 1015.51 1015.53 1015.62 1015.76 1015.93 1016.10 1016.24 1016.30 1016.30 1016.21 1016.08 1015.91
1008.86 1009.62 1010.31 1010.87 1011.24 1011.44 1011.53 1011.59 1011.68 1011.87 1012.17 1012.57 1013.03 1013.50 1013.92 1014.26 1014.49 1014.63 1014.69 1014.72 1014.76 1014.82 1014.92 1015.05 1015.19 1015.31 1015.38 1015.40 1015.37 1015.31 1015.24 1015.18 1015.17 1015.22 1015.31 1015.45 1015.59 1015.71 1015.79 1015.83 1015.81 1015.75 1015.68
1008.74 1009.46 1010.11 1010.61 1010.95 1011.14 1011.23 1011.28 1011.38 1011.57 1011.86 1012.23 1012.66 1013.09 1013.48 1013.79 1014.00 1014.12 1014.19 1014.23 1014.28 1014.37 1014.50 1014.66 1014.83 1014.98 1015.09 1015.14 1015.14 1015.09 1015.01 1014.94 1014.91 1014.91 1014.96 1015.05 1015.16 1015.27 1015.36 1015.43 1015.46 1015.47 1015.47
1008.41 1009.07 1009.66 1010.12 1010.43 1010.63 1010.74 1010.84 1010.98 1011.19 1011.50 1011.87 1012.28 1012.68 1013.03 1013.30 1013.49 1013.59 1013.66 1013.71 1013.78 1013.89 1014.05 1014.25 1014.46 1014.66 1014.81 1014.90 1014.92 1014.89 1014.83 1014.75 1014.69 1014.66 1014.67 1014.72 1014.80 1014.90 1014.99 1015.07 1015.14 1015.20 1015.26
1007.80 1008.37 1008.89 1009.30 1009.61 1009.82 1010.00 1010.17 1010.38 1010.66 1011.01 1011.40 1011.81 1012.19 1012.52 1012.76 1012.92 1013.01 1013.07 1013.14 1013.23 1013.38 1013.58 1013.82 1014.07 1014.31 1014.50 1014.63 1014.68 1014.67 1014.61 1014.53 1014.46 1014.40 1014.39 1014.41 1014.47 1014.55 1014.64 1014.74 1014.84 1014.94 1015.04
1006.90 1007.37 1007.80 1008.16 1008.47 1008.73 1008.97 1009.23 1009.54 1009.91 1010.33 1010.76 1011.19 1011.57 1011.89 1012.12 1012.27 1012.36 1012.43 1012.52 1012.65 1012.83 1013.06 1013.34 1013.63 1013.91 1014.13 1014.29 1014.37 1014.37 1014.33 1014.25 1014.16 1014.10 1014.07 1014.08 1014.13 1014.20 1014.31 1014.42 1014.55 1014.67 1014.80
1005.82 1006.15 1006.49 1006.81 1007.11 1007.41 1007.73 1008.09 1008.51 1008.97 1009.46 1009.95 1010.41 1010.81 1011.13 1011.37 1011.53 1011.64 1011.74 1011.86 1012.02 1012.23 1012.51 1012.81 1013.13 1013.43 1013.67 1013.85 1013.94 1013.97 1013.93 1013.87 1013.79 1013.73 1013.70 1013.72 1013.77 1013.86 1013.98 1014.12 1014.27 1014.42 1014.58
1004.71 1004.92 1005.16 1005.43 1005.72 1006.06 1006.44 1006.88 1007.38 1007.92 1008.48 1009.02 1009.51 1009.94 1010.28 1010.54 1010.73 1010.88 1011.02 1011.17 1011.37 1011.62 1011.92 1012.25 1012.58 1012.88 1013.13 1013.32 1013.43 1013.47 1013.45 1013.41 1013.35 1013.32 1013.31 1013.35 1013.43 1013.54 1013.69 1013.86 1014.04 1014.23 1014.42
1003.79 1003.89 1004.05 1004.27 1004.55 1004.90 1005.32 1005.80 1006.35 1006.93 1007.52 1008.08 1008.60 1009.04 1009.41 1009.70 1009.93 1010.12 1010.31 1010.52 1010.76 1011.04 1011.35 1011.69 1012.02 1012.32 1012.57 1012.75 1012.87 1012.93 1012.94 1012.93 1012.91 1012.92 1012.96 1013.03 1013.15 1013.31 1013.50 1013.71 1013.93 1014.15 1014.37
1003.25 1003.27 1003.37 1003.55 1003.81 1004.15 1004.56 1005.05 1005.59 1006.16 1006.73 1007.28 1007.79 1008.24 1008.62 1008.94 1009.21 1009.46 1009.70 1009.95 1010.23 1010.54 1010.87 1011.20 1011.52 1011.81 1012.04 1012.22 1012.35 1012.43 1012.47 1012.50 1012.54 1012.60 1012.69 1012.82 1012.99 1013.20 1013.43 1013.68 1013.95 1014.21 1014.46
1003.21 1003.20 1003.28 1003.43 1003.67 1003.97 1004.34 1004.77 1005.24 1005.75 1006.25 1006.75 1007.21 1007.64 1008.02 1008.36 1008.67 1008.96 1009.25 1009.55 1009.87 1010.19 1010.52 1010.85 1011.15 1011.41 1011.63 1011.81 1011.94 1012.04 1012.12 1012.20 1012.29 1012.41 1012.56 1012.75 1012.97 1013.23 1013.50 1013.80 1014.10 1014.40 1014.68
1003.70 1003.72 1003.81 1003.96 1004.16 1004.41 1004.70 1005.03 1005.39 1005.77 1006.16 1006.56 1006.94 1007.32 1007.67 1008.02 1008.35 1008.69 1009.02 1009.36 1009.71 1010.04 1010.37 1010.67 1010.95 1011.18 1011.38 1011.55 1011.69 1011.81 1011.93 1012.05 1012.20 1012.37 1012.58 1012.82 1013.08 1013.38 1013.69 1014.01 1014.34 1014.67 1014.98
1004.65 1004.75 1004.89 1005.05 1005.22 1005.40 1005.59 1005.78 1005.99 1006.22 1006.46 1006.72 1007.00 1007.30 1007.62 1007.96 1008.31 1008.67 1009.04 1009.41 1009.76 1010.10 1010.42 1010.69 1010.94 1011.14 1011.32 1011.47 1011.60 1011.74 1011.88 1012.05 1012.24 1012.45 1012.70 1012.97 1013.27 1013.59 1013.92 1014.26 1014.60 1014.94 1015.27
1005.90 1006.12 1006.32 1006.51 1006.66 1006.77 1006.84 1006.90 1006.94 1007.00 1007.08 1007.19 1007.36 1007.57 1007.84 1008.16 1008.51 1008.89 1009.28 1009.66 1010.02 1010.35 1010.64 1010.88 1011.08 1011.25 1011.39 1011.52 1011.64 1011.78 1011.94 1012.12 1012.34 1012.58 1012.85 1013.14 1013.45 1013.77 1014.11 1014.45 1014.79 1015.14 1015.47
1007.28 1007.61 1007.89 1008.10 1008.23 1008.28 1008.26 1008.18 1008.07 1007.96 1007.89 1007.87 1007.92 1008.05 1008.27 1008.56 1008.90 1009.28 1009.68 1010.06 1010.41 1010.72 1010.97 1011.17 1011.32 1011.44 1011.53 1011.62 1011.73 1011.85 1012.01 1012.20 1012.42 1012.67 1012.94 1013.24 1013.54 1013.86 1014.18 1014.51 1014.85 1015.19 1015.52
1008.56 1008.99 1009.34 1009.58 1009.71 1009.70 1009.60 1009.41 1009.18 1008.94 1008.75 1008.62 1008.58 1008.64 1008.81 1009.07 1009.40 1009.77 1010.15 1010.52 1010.84 1011.11 1011.31 1011.45 1011.55 1011.60 1011.65 1011.70 1011.77 1011.87 1012.01 1012.19 1012.40 1012.65 1012.91 1013.20 1013.49 1013.79 1014.10 1014.42 1014.75 1015.08 1015.41
Thickness
5809 5807 5804 5801 5796 5791 5786 5782 5778 5775 5770 5765 5761 5757 5755 5754 5753 5752 5751 5750 5748 5747 5745 5743 5742 5741 5740 5739 5738 5737 5736 5736 5737 5734 5734 5737 5740 5740 5741 5741 5741 5741 5740
5807 5807 5805 5802 5798 5793 5789 5785 5781 5777 5774 5770 5766 5762 5759 5757 5756 5754 5753 5751 5750 5748 5746 5745 5743 5742 5741 5739 5739 5737 5735 5735 5735 5732 5728 5727 5731 5737 5741 5740 5740 5740 5739
5810 5808 5806 5803 5800 5796 5793 5790 5785 5781 5777 5773 5768 5764 5761 5758 5756 5755 5754 5753 5752 5750 5749 5747 5746 5744 5742 5740 5739 5738 5736 5733 5734 5734 5729 5723 5722 5728 5735 5737 5738 5738 5738
5817 5812 5809 5806 5804 5802 5799 5794 5789 5784 5780 5776 5771 5766 5761 5757 5757 5756 5756 5755 5753 5752 5750 5749 5747 5745 5743 5741 5740 5739 5737 5734 5731 5732 5732 5730 5729 5724 5725 5731 5735 5736 5736
5822 5818 5816 5813 5810 5807 5802 5798 5792 5787 5783 5778 5774 5769 5765 5763 5761 5759 5757 5755 5754 5753 5752 5750 5748 5746 5744 5742 5741 5739 5737 5735 5733 5731 5730 5729 5727 5726 5722 5723 5728 5731 5733
5828 5824 5821 5817 5812 5810 5805 5800 5795 5790 5786 5781 5777 5772 5768 5765 5762 5759 5757 5756 5754 5754 5753 5751 5749 5747 5745 5743 5741 5740 5738 5736 5734 5732 5730 5728 5726 5724 5722 5721 5722 5724 5729
5830 5825 5821 5817 5814 5811 5807 5803 5798 5793 5789 5785 5780 5776 5772 5769 5765 5762 5759 5757 5755 5754 5753 5752 5749 5747 5746 5744 5742 5739 5737 5735 5733 5732 5731 5730 5729 5728 5725 5722 5721 5721 5725
5833 5829 5825 5821 5817 5814 5810 5806 5800 5796 5792 5788 5784 5780 5776 5772 5769 5766 5762 5759 5757 5756 5755 5752 5750 5748 5746 5744 5741 5739 5737 5736 5734 5733 5731 5730 5729 5727 5726 5723 5720 5718 5720
5834 5831 5828 5824 5820 5816 5813 5809 5803 5798 5794 5791 5787 5783 5779 5775 5771 5768 5765 5762 5759 5758 5756 5753 5751 5748 5746 5744 5741 5738 5736 5735 5733 5732 5730 5729 5729 5727 5726 5724 5721 5717 5715
5833 5831 5828 5825 5821 5818 5815 5811 5807 5802 5797 5793 5789 5786 5781 5777 5773 5768 5764 5761 5759 5757 5754 5752 5750 5747 5745 5743 5740 5737 5735 5733 5732 5730 5729 5727 5726 5725 5724 5722 5720 5718 5716
5832 5830 5828 5826 5822 5818 5815 5811 5807 5802 5797 5793 5789 5786 5781 5777 5773 5769 5765 5761 5759 5756 5753 5750 5748 5745 5743 5741 5738 5736 5734 5731 5729 5728 5726 5725 5724 5722 5721 5719 5717 5716 5714
5830 5829 5826 5823 5819 5816 5813 5810 5807 5803 5799 5795 5790 5786 5782 5777 5773 5769 5766 5762 5758 5755 5752 5749 5745 5743 5741 5738 5736 5733 5731 5729 5726 5724 5722 5721 5720 5718 5717 5715 5714 5713 5711
5823 5823 5821 5819 5817 5814 5812 5809 5805 5803 5800 5796 5790 5785 5780 5776 5772 5769 5766 5761 5757 5753 5751 5747 5744 5741 5739 5737 5734 5732 5729 5726 5724 5722 5719 5717 5716 5714 5713 5711 5710 5709 5709
5817 5817 5815 5814 5815 5814 5812 5809 5803 5800 5798 5794 5789 5783 5780 5777 5772 5769 5766 5760 5756 5753 5750 5746 5743 5739 5737 5735 5733 5730 5727 5724 5721 5719 5716 5714 5711 5710 5709 5708 5706 5705 5704
5809 5811 5811 5811 5811 5810 5809 5807 5803 5800 5796 5791 5787 5783 5780 5777 5773 5768 5765 5760 5756 5753 5748 5744 5740 5737 5734 5732 5730 5728 5725 5721 5718 5715 5713 5710 5708 5706 5704 5703 5701 5700 5698
5805 5806 5808 5808 5807 5807 5806 5805 5802 5800 5795 5790 5786 5782 5778 5774 5771 5767 5763 5758 5753 5749 5744 5741 5737 5734 5731 5729 5726 5724 5721 5717 5714 5710 5708 5706 5703 5701 5699 5697 5696 5694 5692
5802 5801 5803 5804 5805 5805 5804 5801 5798 5795 5791 5786 5782 5778 5775 5772 5767 5763 5759 5754 5749 5745 5741 5737 5734 5730 5727 5725 5722 5719 5716 5713 5709 5705 5702 5700 5698 5695 5693 5691 5690 5688 5686
5796 5798 5800 5800 5802 5802 5800 5798 5794 5789 5785 5782 5778 5775 5771 5767 5762 5757 5753 5749 5744 5740 5736 5733 5729 5726 5723 5720 5717 5713 5710 5707 5703 5700 5696 5693 5691 5689 5686 5684 5682 5680 5678
5791 5793 5796 5796 5796 5795 5793 5790 5786 5783 5780 5777 5774 5772 5767 5762 5756 5751 5747 5743 5738 5733 5730 5726 5723 5720 5717 5714 5710 5707 5704 5700 5696 5694 5690 5687 5684 5682 5680 5677 5674 5672 5670
5782 5785 5788 5788 5787 5787 5785 5781 5778 5776 5772 5771 5769 5766 5761 5756 5751 5746 5741 5737 5733 5727 5723 5719 5716 5713 5710 5707 5704 5701 5697 5693 5690 5686 5683 5680 5677 5674 5672 5670 5667 5665 5663
5772 5776 5778 5777 5778 5779 5777 5772 5769 5768 5767 5765 5761 5757 5754 5749 5744 5739 5734 5730 5725 5720 5715 5711 5708 5704 5702 5699 5696 5693 5690 5687 5683 5680 5676 5673 5670 5667 5664 5662 5660 5657 5655
5761 5764 5766 5766 5767 5768 5767 5762 5760 5761 5758 5756 5750 5747 5744 5741 5736 5730 5725 5721 5718 5711 5708 5704 5699 5695 5693 5690 5687 5684 5681 5679 5675 5672 5669 5666 5662 5659 5657 5654 5652 5649 5647
5750 5753 5754 5755 5756 5757 5755 5751 5751 5751 5748 5744 5739 5737 5734 5731 5727 5722 5717 5712 5708 5704 5699 5695 5690 5686 5683 5681 5678 5674 5672 5669 5666 5664 5660 5657 5654 5651 5648 5645 5643 5640 5638
5737 5740 5741 5742 5744 5744 5744 5744 5742 5741 5738 5733 5728 5725 5723 5719 5716 5712 5708 5704 5699 5696 5692 5686 5682 5678 5675 5672 5668 5665 5663 5659 5656 5653 5650 5647 5644 5641 5638 5636 5633 5630 5627
5721 5725 5727 5729 5730 5728 5730 5732 5731 5729 5725 5722 5718 5713 5711 5709 5705 5700 5696 5694 5691 5689 5686 5681 5676 5671 5667 5664 5660 5657 5653 5650 5647 5643 5640 5637 5633 5630 5627 5625 5622 5619 5616
5705 5709 5713 5714 5715 5715 5715 5719 5721 5718 5714 5711 5708 5704 5701 5698 5695 5691 5684 5680 5678 5675 5674 5671 5667 5663 5659 5655 5651 5647 5643 5640 5636 5634 5630 5626 5623 5619 5616 5613 5610 5607 5605